TimeMDT,TemperatureF,Dew PointF,Humidity,Sea Level PressureIn,VisibilityMPH,Wind Direction,Wind SpeedMPH,Gust SpeedMPH,PrecipitationIn,Events,Conditions,WindDirDegrees,DateUTC
12:37 AM,30.2,28.4,93,29.94,7.0,SE,16.1,-,N/A,,Overcast,140,2013-03-17 06:37:00
12:53 AM,30.0,28.0,92,29.98,8.0,SSE,15.0,-,N/A,,Overcast,150,2013-03-17 06:53:00
1:06 AM,30.2,28.4,93,29.93,1.8,SSE,15.0,-,N/A,,Overcast,150,2013-03-17 07:06:00
1:20 AM,30.2,28.4,93,29.92,0.5,SE,12.7,-,N/A,Fog,Light Freezing Fog,140,2013-03-17 07:20:00
1:43 AM,30.2,28.4,93,29.93,0.2,SSE,13.8,-,N/A,Fog,Light Freezing Fog,150,2013-03-17 07:43:00
1:53 AM,30.0,28.9,96,29.98,0.2,SE,12.7,-,N/A,Fog,Light Freezing Fog,140,2013-03-17 07:53:00
2:38 AM,30.2,30.2,100,29.92,0.5,SSE,11.5,-,N/A,Fog,Light Freezing Fog,150,2013-03-17 08:38:00
2:53 AM,30.0,28.9,96,29.96,0.5,SSE,15.0,-,N/A,Fog,Light Freezing Fog,150,2013-03-17 08:53:00
3:10 AM,30.2,28.4,93,29.91,1.2,SSE,15.0,-,N/A,,Overcast,160,2013-03-17 09:10:00
3:26 AM,30.2,28.4,93,29.89,2.0,SSE,13.8,-,N/A,,Overcast,160,2013-03-17 09:26:00
3:53 AM,30.2,28.4,93,29.89,2.5,South,17.3,21.9,N/A,,Overcast,170,2013-03-17 09:53:00
4:01 AM,30.2,28.4,93,29.89,3.0,South,16.1,-,N/A,,Overcast,170,2013-03-17 10:01:00
4:53 AM,30.0,28.9,96,29.91,9.0,South,13.8,-,N/A,,Overcast,170,2013-03-17 10:53:00
5:06 AM,30.2,28.4,93,29.87,10.0,South,15.0,-,N/A,,Overcast,170,2013-03-17 11:06:00
5:53 AM,30.0,28.9,96,29.91,8.0,South,17.3,-,N/A,,Overcast,170,2013-03-17 11:53:00
6:53 AM,30.0,28.9,96,29.88,10.0,South,18.4,-,N/A,,Overcast,170,2013-03-17 12:53:00
7:53 AM,30.0,28.9,96,29.87,10.0,SSE,20.7,31.1,N/A,,Overcast,160,2013-03-17 13:53:00
8:34 AM,30.2,30.2,100,29.79,8.0,South,16.1,-,N/A,,Overcast,170,2013-03-17 14:34:00
8:53 AM,30.9,30.0,96,29.87,9.0,SSE,17.3,26.5,N/A,,Overcast,160,2013-03-17 14:53:00
9:21 AM,32.0,30.2,93,29.78,10.0,SSE,20.7,29.9,N/A,,Overcast,160,2013-03-17 15:21:00
9:53 AM,32.0,30.9,96,29.84,10.0,SSE,20.7,27.6,N/A,,Overcast,160,2013-03-17 15:53:00
10:16 AM,35.6,32.0,87,29.77,10.0,SSE,21.9,29.9,N/A,,Overcast,160,2013-03-17 16:16:00
10:53 AM,39.9,32.0,73,29.79,10.0,SSE,23.0,31.1,N/A,,Mostly Cloudy,150,2013-03-17 16:53:00
11:17 AM,44.6,30.2,57,29.71,9.0,South,27.6,34.5,N/A,,Partly Cloudy,170,2013-03-17 17:17:00
11:53 AM,46.9,28.9,50,29.72,8.0,South,25.3,39.1,N/A,,Clear,170,2013-03-17 17:53:00
12:53 PM,48.9,26.1,41,29.68,10.0,South,26.5,38.0,N/A,,Scattered Clouds,170,2013-03-17 18:53:00
1:53 PM,53.1,26.1,35,29.62,10.0,South,27.6,40.3,N/A,,Partly Cloudy,170,2013-03-17 19:53:00
2:53 PM,53.1,27.0,37,29.57,10.0,South,25.3,39.1,N/A,,Partly Cloudy,180,2013-03-17 20:53:00
3:53 PM,54.0,28.9,38,29.57,10.0,South,23.0,31.1,N/A,,Clear,180,2013-03-17 21:53:00
4:53 PM,53.1,30.0,41,29.55,10.0,South,18.4,28.8,N/A,,Clear,170,2013-03-17 22:53:00
5:14 PM,53.6,30.2,41,29.55,10.0,South,15.0,24.2,N/A,Thunderstorm,Mostly Cloudy,170,2013-03-17 23:14:00
5:45 PM,44.6,37.4,76,29.60,6.0,NNW,12.7,23.0,0.02,Rain-Thunderstorm,Light Rain,340,2013-03-17 23:45:00
5:53 PM,45.0,37.9,76,29.60,4.0,SSE,8.1,18.4,0.04,Rain,Light Rain,150,2013-03-17 23:53:00
6:53 PM,45.0,39.0,80,29.68,10.0,NW,5.8,-,0.00,Rain,Light Rain,310,2013-03-18 00:53:00
7:53 PM,39.9,37.9,93,29.69,10.0,ESE,5.8,-,0.04,,Mostly Cloudy,120,2013-03-18 01:53:00
8:53 PM,41.0,37.9,89,29.74,10.0,West,5.8,-,N/A,,Overcast,280,2013-03-18 02:53:00
9:53 PM,41.0,28.9,62,29.78,10.0,NNW,28.8,39.1,0.01,,Mostly Cloudy,330,2013-03-18 03:53:00
10:53 PM,35.1,26.1,70,29.82,10.0,NNW,23.0,33.4,N/A,,Partly Cloudy,340,2013-03-18 04:53:00
11:53 PM,33.1,25.0,72,29.85,10.0,NNW,21.9,27.6,N/A,,Clear,330,2013-03-18 05:53:00